CW8524 Weather Reports


time (UTC)temp
C
wind
direction
speed
KPH
gust
KPH
rain 1hr
cm
rain 24hr
cm
rain mn
cm
humidity
%
barometer
mb
20220811234522 30 126 6.4 14.5 0.00 0.00 0.00 34 1024.7
20220811233029 30 132 6.4 16.1 0.00 0.00 0.00 34 1024.7
20220811231522 30 128 12.9 19.3 0.00 0.00 0.00 34 1024.8
20220811230018 30 151 3.2 17.7 0.00 0.00 0.00 34 1024.9
20220811224539 30 173 9.7 19.3 0.00 0.00 0.00 34 1025.1
20220811223029 30 141 12.9 24.1 0.00 0.00 0.00 33 1025.1
20220811221521 30 151 11.3 19.3 0.00 0.00 0.00 34 1025.3
20220811220018 31 124 12.9 20.9 0.00 0.00 0.00 32 1025.4
20220811214510 30 149 8.0 20.9 0.00 0.00 0.00 33 1025.6
20220811213014 30 146 12.9 19.3 0.00 0.00 0.00 35 1025.7
20220811211511 30 148 4.8 19.3 0.00 0.00 0.00 37 1025.8
20220811210005 30 103 6.4 19.3 0.00 0.00 0.00 38 1025.9
20220811204504 30 90 11.3 19.3 0.00 0.00 0.00 39 1026.3
20220811203003 29 129 9.7 24.1 0.00 0.00 0.00 40 1026.5
20220811201609 30 165 9.7 22.5 0.00 0.00 0.00 41 1026.7
20220811200057 30 172 14.5 22.5 0.00 0.00 0.00 39 1027.1
20220811194554 29 130 11.3 20.9 0.00 0.00 0.00 42 1027.1
20220811193056 29 150 8.0 20.9 0.00 0.00 0.00 43 1027.4
20220811191622 29 88 4.8 20.9 0.00 0.00 0.00 42 1027.5
20220811190048 28 186 8.0 22.5 0.00 0.00 0.00 40 1027.6
20220811184552 28 138 3.2 16.1 0.00 0.00 0.00 44 1027.8
20220811183044 28 149 8.0 20.9 0.00 0.00 0.00 47 1027.8
20220811181541 28 116 6.4 19.3 0.00 0.00 0.00 47 1028.2
20220811180039 28 134 12.9 20.9 0.00 0.00 0.00 46 1028.4
20220811174547 27 134 6.4 19.3 0.00 0.00 0.00 47 1028.5
20220811173034 27 252 8.0 22.5 0.00 0.00 0.00 48 1028.5
20220811171535 27 128 12.9 19.3 0.00 0.00 0.00 49 1028.8
20220811170038 27 152 3.2 19.3 0.00 0.00 0.00 55 1028.9
20220811164530 26 140 9.7 17.7 0.00 0.00 0.00 55 1029.0
20220811163019 26 169 3.2 14.5 0.00 0.00 0.00 56 1029.2
20220811161515 26 157 6.4 14.5 0.00 0.00 0.00 57 1029.1
20220811160011 25 123 6.4 17.7 0.00 0.00 0.00 57 1029.2
20220811154515 25 170 4.8 16.1 0.00 0.00 0.00 57 1029.2
20220811153007 25 123 4.8 11.3 0.00 0.00 0.00 57 1029.2
20220811151502 25 140 6.4 16.1 0.00 0.00 0.00 58 1029.2
20220811150139 25 107 6.4 12.9 0.00 0.00 0.00 58 1029.3
20220811144553 25 150 1.6 9.7 0.00 0.00 0.00 59 1029.3
20220811143052 25 153 0.0 4.8 0.00 0.00 0.00 57 1029.4
20220811141548 24 172 1.6 6.4 0.00 0.00 0.00 59 1029.3
20220811140043 23 252 0.0 1.6 0.00 0.00 0.00 61 1029.3
20220811134539 22 260 0.0 1.6 0.00 0.00 0.00 65 1029.2
20220811133031 21 260 0.0 1.6 0.00 0.00 0.00 71 1029.4
20220811131526 20 260 0.0 3.2 0.00 0.00 0.00 74 1029.3
20220811130022 18 260 0.0 0.0 0.00 0.00 0.00 77 1029.2
20220811124533 18 260 0.0 0.0 0.00 0.00 0.00 78 1029.3
20220811123016 17 260 0.0 0.0 0.00 0.00 0.00 79 1029.2
20220811121517 17 258 1.6 4.8 0.00 0.00 0.00 79 1029.1
20220811120017 17 250 0.0 3.2 0.00 0.00 0.00 80 1029.0
20220811114512 17 249 0.0 0.0 0.00 0.00 0.00 80 1028.8
20220811113033 17 249 0.0 0.0 0.00 0.00 0.00 81 1028.8
20220811111511 17 249 0.0 1.6 0.00 0.00 0.00 81 1028.8
20220811110017 17 249 0.0 3.2 0.00 0.00 0.00 80 1028.9
20220811104512 17 249 0.0 1.6 0.00 0.00 0.00 79 1028.7
20220811103007 18 248 0.0 4.8 0.00 0.00 0.00 78 1028.8
20220811101520 18 248 0.0 1.6 0.00 0.00 0.00 76 1028.8
20220811100002 19 248 0.0 0.0 0.00 0.00 0.00 74 1028.9
20220811094614 19 248 0.0 3.2 0.00 0.00 0.00 75 1028.9
20220811093057 20 247 3.2 6.4 0.00 0.00 0.00 74 1029.0
20220811091609 20 261 3.2 6.4 0.00 0.00 0.00 72 1029.1
20220811090055 20 261 0.0 3.2 0.00 0.00 0.00 74 1029.2
20220811084659 20 260 0.0 6.4 0.00 0.00 0.00 75 1029.2
20220811083059 20 254 0.0 4.8 0.00 0.00 0.00 73 1029.2
20220811081549 20 257 3.2 8.0 0.00 0.00 0.00 72 1029.1
20220811080104 21 246 3.2 8.0 0.00 0.00 0.00 71 1029.2
20220811074610 21 252 4.8 11.3 0.00 0.00 0.00 71 1029.3
20220811073045 21 241 3.2 11.3 0.00 0.00 0.00 72 1029.3
20220811071544 20 270 4.8 11.3 0.00 0.00 0.00 73 1029.5
20220811070043 21 243 3.2 8.0 0.00 0.00 0.00 71 1029.6
20220811064602 21 255 4.8 8.0 0.00 0.00 0.00 69 1029.7
20220811063039 21 257 3.2 11.3 0.00 0.00 0.00 69 1029.7
20220811061612 21 248 4.8 12.9 0.00 0.00 0.00 69 1029.8
20220811060058 21 264 6.4 12.9 0.00 0.00 0.00 71 1029.9
20220811054542 20 254 6.4 12.9 0.00 0.00 0.00 72 1029.8
20220811053049 20 251 6.4 11.3 0.00 0.00 0.00 70 1029.9
20220811051543 21 250 4.8 11.3 0.00 0.00 0.00 69 1029.7
20220811050111 21 238 6.4 11.3 0.00 0.00 0.00 67 1029.8
20220811044530 21 217 6.4 12.9 0.00 0.00 0.00 66 1029.7
20220811043029 21 223 8.0 11.3 0.00 0.00 0.00 66 1029.7
20220811041527 21 219 6.4 11.3 0.00 0.00 0.00 65 1029.6
20220811040032 22 205 4.8 8.0 0.00 0.00 0.00 64 1029.4
20220811034530 22 180 3.2 8.0 0.00 0.00 0.00 64 1029.3
20220811033025 22 205 4.8 8.0 0.00 0.00 0.00 64 1029.1
20220811030020 23 162 8.0 12.9 0.00 0.00 0.00 63 1028.8
20220811024554 23 150 4.8 16.1 0.00 0.00 0.00 62 1028.6
20220811023029 24 156 8.0 11.3 0.00 0.00 0.00 60 1028.3
20220811021533 25 164 8.0 12.9 0.00 0.00 0.00 59 1028.1
20220811020019 25 140 4.8 12.9 0.00 0.00 0.00 59 1028.1
20220811014517 25 146 4.8 11.3 0.00 0.00 0.00 58 1027.9
20220811013038 26 171 8.0 12.9 0.00 0.00 0.00 57 1027.8
20220811011543 26 155 9.7 16.1 0.00 0.00 0.00 54 1027.6
20220811010023 27 133 9.7 17.7 0.00 0.00 0.00 52 1027.5
20220811004523 27 150 11.3 19.3 0.00 0.00 0.00 50 1027.3
20220811003014 28 145 6.4 19.3 0.00 0.00 0.00 49 1027.2
20220811001524 28 161 12.9 19.3 0.00 0.00 0.00 48 1027.1
20220811000012 28 167 9.7 20.9 0.00 0.00 0.00 47 1027.1